Flag for Mexico Weather past 2 weeks in Ojinaga, Chihuahua, Mexico

79 °F


Feels Like: 79 °F
Forecast: 63 / 90 °F
Wind: 7 mph from South

Location: Marfa Municipal Airport

Current Time: Oct 13, 2015 at 1:15:35 PM

Latest Report: Oct 13, 2015 at 12:35 PM

Visibility: 8 mi

Pressure: 30.28 "Hg (27.67 "Hg at 788m altitude)

Humidity: 34%

Dew point: 48 °F

Location of OjinagaLocation

Historic Weather in Ojinaga — Graph


Ojinaga temperature yesterday

Maximum temperature yesterday: 82 °F (at 2:55 PM)
Minimum temperature yesterday: 54 °F (at 2:55 AM)
Average temperature yesterday: 68 °F

Past Weeks' High & Low Weather Summary

High88 °F (Oct 1, 2:55 PM)100% (Oct 5, 5:55 AM)30.39 "Hg (Oct 5, 5:55 AM)
Low48 °F (Sep 30, 5:35 AM)22% (Oct 1, 2:55 PM)29.86 "Hg (Oct 3, 4:35 PM)
Average64 °F69%30.17 "Hg
* Reported Sep 28 12:15 PM — Oct 13 12:15 PM, Ojinaga, Weather by CustomWeather, © 2015

Note: Actual official high and low records may vary slightly from our data, if they occured in-between our weather recording intervals... More about our weather records


Ojinaga weather history for previous 24 hours

Time TempWeatherWind HumidityBarometerVisibility
12:15 PM
Tue, Oct 13
77 °FSunny.No wind36%30.28 "Hg10 mi
11:55 AM79 °FSunny.No wind34%30.29 "Hg10 mi
11:35 AM75 °FSunny.7 mph39%30.29 "Hg10 mi
11:15 AM75 °FSunny.No wind39%30.29 "Hg10 mi
10:55 AM75 °FSunny.No wind39%30.30 "Hg10 mi
10:35 AM73 °FSunny.No wind38%30.30 "Hg10 mi
10:15 AM72 °FSunny.3 mph38%30.30 "Hg10 mi
9:55 AM72 °FSunny.No wind38%30.31 "Hg10 mi
9:35 AM70 °FSunny.No wind40%30.31 "Hg10 mi
9:15 AM68 °FSunny.No wind43%30.30 "Hg10 mi
8:55 AM64 °FSunny.No wind52%30.30 "Hg10 mi
8:35 AM63 °FSunny.No wind56%30.28 "Hg10 mi
8:15 AM57 °FSunny.No wind72%30.28 "Hg10 mi
7:55 AM54 °FClear.3 mph77%30.27 "Hg10 mi
7:35 AM52 °FClear.3 mph77%30.26 "Hg10 mi
7:15 AM52 °FClear.5 mph77%30.26 "Hg10 mi
6:55 AM52 °FClear.5 mph82%30.25 "Hg10 mi
6:35 AM52 °FClear.3 mph82%30.25 "Hg10 mi
6:15 AM54 °FClear.8 mph77%30.24 "Hg10 mi
5:55 AM52 °FClear.7 mph82%30.24 "Hg10 mi
5:35 AM54 °FClear.6 mph77%30.23 "Hg10 mi
5:15 AM54 °FClear.7 mph77%30.23 "Hg10 mi
4:55 AM55 °FClear.8 mph72%30.23 "Hg10 mi
4:35 AM55 °FClear.9 mph72%30.22 "Hg10 mi
4:15 AM55 °FClear.9 mph77%30.22 "Hg10 mi
3:55 AM57 °FClear.8 mph72%30.22 "Hg10 mi
3:35 AM57 °FClear.9 mph72%30.22 "Hg10 mi
3:15 AM57 °FClear.8 mph72%30.22 "Hg10 mi
2:55 AM57 °FClear.9 mph72%30.22 "Hg10 mi
2:35 AM57 °FClear.9 mph72%30.22 "Hg10 mi
2:15 AM57 °FClear.8 mph72%30.22 "Hg10 mi
1:55 AM57 °FClear.6 mph72%30.23 "Hg10 mi
1:35 AM57 °FClear.6 mph72%30.23 "Hg10 mi
1:15 AM57 °FClear.10 mph77%30.23 "Hg10 mi
12:55 AM59 °FClear.6 mph77%30.23 "Hg10 mi
12:35 AM61 °FClear.3 mph72%30.24 "Hg10 mi
12:15 AM61 °FClear.7 mph72%30.24 "Hg10 mi
11:55 PM
Mon, Oct 12
63 °FClear.10 mph68%30.24 "Hg10 mi
11:35 PM63 °FClear.7 mph73%30.24 "Hg10 mi
11:15 PM64 °FClear.7 mph64%30.24 "Hg10 mi
10:55 PM64 °FClear.3 mph68%30.24 "Hg10 mi
10:35 PM64 °FClear.9 mph68%30.23 "Hg10 mi
10:15 PM66 °FClear.9 mph60%30.24 "Hg10 mi
9:55 PM66 °FPassing clouds.9 mph60%30.23 "Hg10 mi
9:35 PM66 °FPassing clouds.6 mph60%30.22 "Hg10 mi
8:55 PM66 °FPassing clouds.3 mph64%30.21 "Hg10 mi
8:35 PM66 °FClear.5 mph64%30.21 "Hg10 mi
8:15 PM66 °FClear.5 mph60%30.20 "Hg10 mi
7:55 PM66 °FClear.6 mph64%30.19 "Hg10 mi
7:35 PM66 °FClear.6 mph64%30.19 "Hg10 mi
7:15 PM66 °FSunny.8 mph60%30.19 "Hg10 mi
6:55 PM68 °FSunny.8 mph60%30.18 "Hg10 mi
6:35 PM70 °FSunny.7 mph53%30.18 "Hg10 mi
6:15 PM72 °FSunny.8 mph47%30.17 "Hg10 mi
5:55 PM73 °FPassing clouds.14 mph41%30.16 "Hg10 mi
5:35 PM73 °FSunny.16 mph44%30.15 "Hg10 mi
5:15 PM75 °FSunny.16 mph39%30.15 "Hg10 mi
4:55 PM77 °FSunny.15 mph36%30.13 "Hg10 mi
4:35 PM79 °FSunny.12 mph34%30.13 "Hg10 mi
4:15 PM81 °FSunny.12 mph30%30.12 "Hg10 mi
3:55 PM81 °FPassing clouds.9 mph28%30.12 "Hg10 mi
3:15 PM82 °FSunny.16 mph26%30.11 "Hg10 mi
2:55 PM82 °FSunny.16 mph28%30.11 "Hg10 mi
2:35 PM81 °FSunny.16 mph28%30.11 "Hg10 mi
2:15 PM81 °FSunny.16 mph28%30.12 "Hg10 mi
1:55 PM81 °FSunny.15 mph30%30.12 "Hg10 mi
1:35 PM79 °FPassing clouds.15 mph30%30.13 "Hg10 mi
1:15 PM79 °FPassing clouds.18 mph32%30.13 "Hg10 mi
Weather by CustomWeather, © 2015

See weather overviewHow to use our weather pages